This is the latest recevied weather packets stored in our database for station/object N5ATR. If no packets are shown the sender has not sent any weather packets the latest 10 day(s).
| Time | Temp. | Humidity | Pressure | Rain* | Wind** | Luminosity | Snow |
|---|---|---|---|---|---|---|---|
| 1777911363 | 16.67° C | 33% | 1015 hPa | 0 mm | - | 426 W/m² | - |
| 1777911061 | 17.22° C | 32% | 1015 hPa | 0 mm | - | 519 W/m² | - |
| 1777910759 | 16.67° C | 34% | 1014.9 hPa | 0 mm | - | 554 W/m² | - |
| 1777910455 | 16.11° C | 34% | 1015 hPa | 0 mm | - | 507 W/m² | - |
| 1777910151 | 16.11° C | 34% | 1015.1 hPa | 0 mm | - | 506 W/m² | - |
| 1777909849 | 16.11° C | 35% | 1015.4 hPa | 0 mm | - | 448 W/m² | - |
| 1777909545 | 16.67° C | 35% | 1015 hPa | 0 mm | - | 389 W/m² | - |
| 1777909243 | 16.11° C | 37% | 1015 hPa | 0 mm | - | 463 W/m² | - |
| 1777908941 | 15.56° C | 36% | 1015 hPa | 0 mm | - | 355 W/m² | - |
| 1777908639 | 15° C | 37% | 1014.8 hPa | 0 mm | - | 441 W/m² | - |
| 1777908335 | 15° C | 37% | 1015.3 hPa | 0 mm | - | 370 W/m² | - |
| 1777908032 | 15.56° C | 38% | 1015.4 hPa | 0 mm | - | 314 W/m² | - |
| 1777907728 | 15.56° C | 38% | 1015.5 hPa | 0 mm | - | 346 W/m² | - |
| 1777907428 | 15° C | 41% | 1015.1 hPa | 0 mm | - | 266 W/m² | - |
| 1777907125 | 15° C | 41% | 1015.1 hPa | 0 mm | - | 233 W/m² | - |
| 1777906823 | 15° C | 41% | 1015.3 hPa | 0 mm | - | 221 W/m² | - |
| 1777906521 | 15° C | 40% | 1015.3 hPa | 0 mm | - | 245 W/m² | - |
| 1777906220 | 15° C | 43% | 1015.5 hPa | 0 mm | - | 262 W/m² | - |
| 1777905918 | 13.89° C | 44% | 1015.3 hPa | 0 mm | - | 222 W/m² | - |
| 1777905614 | 13.89° C | 49% | 1015.1 hPa | 0 mm | - | 188 W/m² | - |
| 1777905311 | 13.89° C | 49% | 1015.6 hPa | 0 mm | - | 171 W/m² | - |
| 1777905009 | 13.89° C | 51% | 1015.5 hPa | 0 mm | - | 173 W/m² | - |
| 1777904706 | 13.33° C | 51% | 1015.5 hPa | 0 mm | - | 183 W/m² | - |
| 1777904403 | 13.33° C | 53% | 1015.6 hPa | 0 mm | - | 170 W/m² | - |
| 1777904100 | 13.33° C | 55% | 1015.5 hPa | 0 mm | - | 164 W/m² | - |
* Rain latest hour (hover to see other rain measurements)
** Current wind speed in m/s (hover to see current wind gust speed)